Radiation Dose at Monitoring Post of Fukushima Daini Nuclear Power Station
Date,Time,MP-1(microSv/h),MP-2(microSv/h),MP-3(microSv/h),MP-4(microSv/h),MP-5(microSv/h),MP-6(microSv/h),MP-7(microSv/h),Wind Direction,Wind Velocity(m/s),Rain
2023/07/19,00:00,0.146,0.136,0.215,0.206,0.213,0.117,0.075,north,2.7,No
2023/07/19,00:10,0.147,0.136,0.215,0.204,0.214,0.117,0.076,north-northwest,2.7,No
2023/07/19,00:20,0.148,0.134,0.213,0.204,0.211,0.118,0.075,north-northwest,2.5,No
2023/07/19,00:30,0.147,0.135,0.212,0.207,0.209,0.117,0.076,northwest,2.1,No
2023/07/19,00:40,0.147,0.135,0.215,0.205,0.212,0.118,0.077,north-northwest,1.5,No
2023/07/19,00:50,0.147,0.135,0.215,0.204,0.213,0.118,0.076,west-northwest,1.7,No
2023/07/19,01:00,0.148,0.134,0.213,0.205,0.211,0.118,0.076,north-northwest,1.2,No
2023/07/19,01:10,0.147,0.136,0.214,0.206,0.209,0.117,0.075,northwest,2.0,No
2023/07/19,01:20,0.146,0.136,0.216,0.205,0.211,0.117,0.076,west,1.2,No
2023/07/19,01:30,0.148,0.135,0.215,0.204,0.213,0.118,0.077,west-southwest,1.2,No
2023/07/19,01:40,0.149,0.134,0.214,0.205,0.211,0.118,0.076,northwest,1.4,No
2023/07/19,01:50,0.147,0.136,0.215,0.207,0.209,0.118,0.076,north-northwest,0.8,No
2023/07/19,02:00,0.147,0.136,0.216,0.205,0.213,0.117,0.076,west,0.8,No
2023/07/19,02:10,0.148,0.134,0.214,0.204,0.213,0.118,0.076,west-southwest,1.0,No
2023/07/19,02:20,0.149,0.136,0.213,0.205,0.212,0.118,0.077,west-southwest,0.9,No
2023/07/19,02:30,0.148,0.136,0.215,0.207,0.211,0.117,0.076,south-southwest,1.1,No
2023/07/19,02:40,0.147,0.136,0.215,0.205,0.212,0.118,0.077,south-southwest,0.6,No
2023/07/19,02:50,0.149,0.135,0.214,0.205,0.213,0.118,0.077,-,CALM,No
2023/07/19,03:00,0.148,0.137,0.214,0.207,0.211,0.118,0.075,northwest,0.6,No
2023/07/19,03:10,0.147,0.137,0.217,0.206,0.210,0.118,0.077,north-northwest,0.7,No
2023/07/19,03:20,0.148,0.135,0.216,0.205,0.213,0.118,0.076,north-northwest,1.0,No
2023/07/19,03:30,0.149,0.135,0.212,0.205,0.213,0.118,0.076,north-northwest,0.8,No
2023/07/19,03:40,0.148,0.136,0.215,0.206,0.211,0.118,0.076,north-northwest,0.7,No
2023/07/19,03:50,0.146,0.136,0.216,0.204,0.210,0.117,0.076,north-northeast,0.6,No
2023/07/19,04:00,0.149,0.136,0.216,0.204,0.212,0.118,0.076,-,CALM,No
2023/07/19,04:10,-,-,-,-,-,-,-,-,-,-
2023/07/19,04:20,0.147,0.136,0.216,0.207,0.211,0.118,0.076,-,CALM,No
2023/07/19,04:30,0.146,0.135,0.216,0.205,0.210,0.117,0.077,northeast,0.6,No
2023/07/19,04:40,0.149,0.135,0.214,0.205,0.214,0.117,0.076,-,CALM,No
2023/07/19,04:50,0.149,0.137,0.214,0.207,0.214,0.119,0.076,-,CALM,Yes
2023/07/19,05:00,0.147,0.136,0.216,0.207,0.211,0.118,0.077,northeast,0.9,No
2023/07/19,05:10,0.147,0.135,0.215,0.204,0.210,0.118,0.076,east-northeast,0.8,Yes
2023/07/19,05:20,0.148,0.136,0.213,0.203,0.213,0.118,0.076,east-southeast,0.6,Yes
2023/07/19,05:30,0.147,0.137,0.216,0.206,0.213,0.118,0.076,-,CALM,Yes
2023/07/19,05:40,0.147,0.136,0.216,0.205,0.211,0.119,0.077,-,CALM,Yes
2023/07/19,05:50,0.147,0.135,0.213,0.205,0.210,0.117,0.076,-,CALM,Yes
2023/07/19,06:00,0.149,0.136,0.214,0.203,0.212,0.117,0.077,south-southeast,1.0,Yes
2023/07/19,06:10,0.149,0.137,0.216,0.207,0.213,0.119,0.076,south,1.4,Yes
2023/07/19,06:20,0.147,0.136,0.216,0.208,0.212,0.120,0.077,-,CALM,Yes
2023/07/19,06:30,0.147,0.136,0.215,0.206,0.211,0.119,0.079,east-southeast,1.7,Yes
2023/07/19,06:40,0.150,0.137,0.215,0.205,0.212,0.120,0.079,southeast,0.8,Yes
2023/07/19,06:50,0.150,0.138,0.218,0.208,0.215,0.121,0.080,-,CALM,Yes
2023/07/19,07:00,0.149,0.138,0.218,0.206,0.212,0.121,0.080,-,CALM,Yes
2023/07/19,07:10,0.149,0.138,0.216,0.205,0.210,0.120,0.081,northeast,10.7,Yes
2023/07/19,07:20,0.152,0.140,0.216,0.206,0.214,0.123,0.082,-,CALM,Yes
2023/07/19,07:30,0.152,0.139,0.217,0.208,0.214,0.123,0.083,northwest,1.0,Yes
2023/07/19,07:40,0.150,0.138,0.215,0.207,0.212,0.123,0.082,northwest,2.2,Yes
2023/07/19,07:50,0.149,0.137,0.213,0.204,0.210,0.120,0.080,north,1.4,Yes
2023/07/19,08:00,0.150,0.138,0.214,0.205,0.213,0.120,0.080,north-northwest,2.2,Yes
2023/07/19,08:10,0.149,0.137,0.215,0.204,0.213,0.120,0.080,north-northwest,1.1,Yes
2023/07/19,08:20,0.147,0.136,0.212,0.203,0.209,0.119,0.079,east-northeast,1.3,Yes
2023/07/19,08:30,0.146,0.136,0.211,0.201,0.210,0.120,0.079,east-northeast,4.9,Yes
2023/07/19,08:40,0.149,0.137,0.213,0.204,0.212,0.119,0.079,-,CALM,Yes
2023/07/19,08:50,0.148,0.136,0.214,0.203,0.211,0.118,0.079,west-southwest,0.8,Yes
2023/07/19,09:00,0.146,0.135,0.210,0.201,0.209,0.119,0.078,north-northeast,1.7,Yes
2023/07/19,09:10,0.147,0.137,0.209,0.199,0.209,0.118,0.078,northeast,0.9,Yes
2023/07/19,09:20,0.147,0.136,0.211,0.203,0.210,0.117,0.078,-,CALM,Yes
2023/07/19,09:30,0.146,0.134,0.211,0.203,0.211,0.118,0.077,west-northwest,0.9,Yes
2023/07/19,09:40,0.146,0.134,0.210,0.200,0.209,0.119,0.077,northwest,1.7,Yes
2023/07/19,09:50,0.147,0.136,0.206,0.199,0.208,0.117,0.076,west-northwest,0.9,No
2023/07/19,10:00,0.147,0.135,0.209,0.200,0.204,0.116,0.077,north-northwest,1.0,Yes
2023/07/19,10:10,0.146,0.134,0.210,0.201,0.207,0.117,0.076,-,CALM,Yes
2023/07/19,10:20,0.145,0.133,0.209,0.200,0.210,0.116,0.077,east-northeast,1.5,No
2023/07/19,10:30,0.145,0.132,0.207,0.198,0.209,0.117,0.075,east-northeast,0.9,No
2023/07/19,10:40,0.144,0.132,0.207,0.199,0.207,0.116,0.075,north,0.7,No
2023/07/19,10:50,0.143,0.132,0.207,0.197,0.207,0.116,0.075,-,CALM,No
2023/07/19,11:00,0.143,0.132,0.206,0.197,0.206,0.116,0.074,northeast,1.2,No
2023/07/19,11:10,0.143,0.133,0.207,0.197,0.206,0.115,0.074,north-northeast,1.1,No
2023/07/19,11:20,0.144,0.132,0.207,0.197,0.206,0.114,0.074,-,CALM,No
2023/07/19,11:30,0.145,0.132,0.206,0.197,0.206,0.114,0.074,north,0.7,No
2023/07/19,11:40,0.146,0.131,0.207,0.199,0.207,0.115,0.074,northeast,1.0,No
2023/07/19,11:50,0.145,0.132,0.207,0.197,0.208,0.115,0.074,east-northeast,1.5,No
2023/07/19,12:00,0.144,0.132,0.207,0.198,0.206,0.115,0.074,east,1.0,No
2023/07/19,12:10,0.146,0.133,0.207,0.199,0.207,0.116,0.075,east,1.9,No
2023/07/19,12:20,0.144,0.134,0.209,0.198,0.207,0.116,0.074,southeast,2.0,No
2023/07/19,12:30,0.145,0.132,0.207,0.199,0.208,0.115,0.075,southeast,1.5,No
2023/07/19,12:40,0.144,0.133,0.208,0.199,0.209,0.116,0.074,southeast,1.5,No
2023/07/19,12:50,0.143,0.132,0.207,0.198,0.208,0.116,0.074,east-southeast,1.4,No
2023/07/19,13:00,0.144,0.132,0.208,0.198,0.208,0.116,0.074,southeast,1.6,No
2023/07/19,13:10,0.144,0.132,0.206,0.199,0.208,0.115,0.075,east-southeast,2.0,No
2023/07/19,13:20,0.144,0.132,0.207,0.199,0.209,0.115,0.074,east-southeast,1.3,No
2023/07/19,13:30,0.143,0.132,0.207,0.198,0.207,0.115,0.074,east-northeast,1.4,No
2023/07/19,13:40,0.144,0.131,0.207,0.199,0.207,0.115,0.074,east,2.6,No
2023/07/19,13:50,0.144,0.134,0.208,0.198,0.207,0.114,0.074,east,3.4,No
2023/07/19,14:00,0.143,0.132,0.207,0.198,0.206,0.114,0.074,east,2.9,Yes
2023/07/19,14:10,0.143,0.131,0.206,0.198,0.207,0.116,0.073,east,3.8,Yes
2023/07/19,14:20,0.143,0.133,0.208,0.197,0.207,0.116,0.074,east,1.9,Yes
2023/07/19,14:30,0.144,0.131,0.206,0.198,0.205,0.115,0.073,east,2.5,Yes
2023/07/19,14:40,0.143,0.132,0.207,0.198,0.206,0.115,0.073,east,2.4,Yes
2023/07/19,14:50,0.143,0.132,0.209,0.198,0.206,0.115,0.074,east,3.1,Yes
2023/07/19,15:00,0.145,0.132,0.210,0.201,0.207,0.115,0.074,east,3.0,Yes
2023/07/19,15:10,0.146,0.133,0.209,0.201,0.212,0.116,0.075,east,3.1,Yes
2023/07/19,15:20,0.146,0.134,0.208,0.199,0.209,0.116,0.075,east,2.9,No
2023/07/19,15:30,0.143,0.132,0.207,0.198,0.208,0.116,0.074,east,2.3,Yes
2023/07/19,15:40,0.144,0.133,0.208,0.198,0.207,0.115,0.074,east,2.4,Yes
2023/07/19,15:50,0.146,0.133,0.210,0.201,0.206,0.115,0.074,east-northeast,3.1,Yes
2023/07/19,16:00,0.145,0.133,0.210,0.202,0.210,0.116,0.074,east-northeast,2.4,Yes
2023/07/19,16:10,0.144,0.133,0.207,0.200,0.209,0.115,0.074,east-northeast,2.5,Yes
2023/07/19,16:20,0.143,0.132,0.207,0.199,0.208,0.115,0.074,east-northeast,2.4,No
2023/07/19,16:30,0.142,0.133,0.210,0.199,0.205,0.115,0.074,northeast,2.6,No
2023/07/19,16:40,0.145,0.133,0.210,0.201,0.207,0.115,0.074,northeast,2.6,No
2023/07/19,16:50,0.145,0.133,0.209,0.200,0.210,0.115,0.074,east-northeast,2.6,No
2023/07/19,17:00,0.144,0.133,0.207,0.199,0.209,0.114,0.074,east-northeast,3.1,Yes
2023/07/19,17:10,0.143,0.133,0.207,0.197,0.208,0.114,0.074,northeast,2.5,Yes
2023/07/19,17:20,0.143,0.131,0.208,0.198,0.207,0.115,0.074,northeast,1.3,No
2023/07/19,17:30,0.145,0.133,0.210,0.201,0.205,0.115,0.073,northeast,1.6,No
2023/07/19,17:40,0.145,0.133,0.209,0.200,0.209,0.116,0.074,north,0.9,No
2023/07/19,17:50,0.144,0.133,0.207,0.200,0.208,0.115,0.075,north,1.1,Yes
2023/07/19,18:00,0.144,0.132,0.208,0.198,0.207,0.115,0.074,northeast,0.9,Yes
2023/07/19,18:10,0.144,0.133,0.211,0.200,0.206,0.116,0.074,east-northeast,0.8,Yes
2023/07/19,18:20,0.148,0.135,0.210,0.202,0.209,0.116,0.076,-,CALM,Yes
2023/07/19,18:30,0.147,0.135,0.210,0.202,0.211,0.116,0.076,northeast,7.0,Yes
2023/07/19,18:40,0.146,0.136,0.213,0.202,0.210,0.119,0.078,northwest,1.8,Yes
2023/07/19,18:50,0.150,0.138,0.213,0.204,0.210,0.122,0.080,north,3.7,Yes
2023/07/19,19:00,0.150,0.139,0.212,0.204,0.215,0.122,0.081,north-northwest,2.0,Yes
2023/07/19,19:10,0.149,0.137,0.211,0.201,0.212,0.120,0.081,northwest,2.8,Yes
2023/07/19,19:20,0.148,0.138,0.212,0.202,0.209,0.120,0.080,west,0.8,No
2023/07/19,19:30,0.149,0.137,0.210,0.202,0.210,0.119,0.080,south,2.3,No
2023/07/19,19:40,0.147,0.135,0.208,0.200,0.212,0.119,0.079,south,2.7,No
2023/07/19,19:50,0.145,0.135,0.211,0.200,0.208,0.116,0.078,south-southwest,3.7,No
2023/07/19,20:00,0.146,0.135,0.209,0.200,0.207,0.118,0.077,south-southwest,3.7,No
2023/07/19,20:10,0.145,0.133,0.207,0.199,0.209,0.117,0.076,south-southwest,4.3,No
2023/07/19,20:20,0.144,0.134,0.209,0.198,0.209,0.115,0.076,south-southwest,5.7,No
2023/07/19,20:30,0.144,0.133,0.207,0.200,0.206,0.115,0.075,south-southwest,5.6,No
2023/07/19,20:40,0.145,0.133,0.206,0.198,0.208,0.115,0.076,south-southwest,3.2,No
2023/07/19,20:50,0.143,0.132,0.208,0.198,0.209,0.116,0.075,west,3.5,No
2023/07/19,21:00,0.143,0.133,0.208,0.199,0.206,0.115,0.075,north-northwest,6.0,No
2023/07/19,21:10,0.145,0.132,0.205,0.197,0.206,0.115,0.075,north-northwest,7.9,No
2023/07/19,21:20,0.144,0.132,0.207,0.195,0.209,0.115,0.074,north-northwest,7.3,No
2023/07/19,21:30,0.142,0.132,0.206,0.198,0.207,0.114,0.072,north-northwest,6.7,No
2023/07/19,21:40,0.145,0.133,0.204,0.198,0.205,0.115,0.074,north-northwest,7.7,No
2023/07/19,21:50,0.144,0.131,0.206,0.196,0.209,0.114,0.074,north-northwest,7.3,No
2023/07/19,22:00,0.143,0.132,0.207,0.197,0.206,0.114,0.074,north-northwest,8.1,No
2023/07/19,22:10,0.144,0.131,0.205,0.198,0.204,0.114,0.073,north-northwest,8.2,No
2023/07/19,22:20,0.144,0.132,0.207,0.197,0.207,0.114,0.074,north-northwest,7.4,No
2023/07/19,22:30,0.143,0.132,0.205,0.197,0.206,0.114,0.073,north-northwest,7.8,No
2023/07/19,22:40,0.143,0.132,0.205,0.197,0.205,0.113,0.074,north-northwest,8.9,No
2023/07/19,22:50,0.145,0.132,0.207,0.196,0.208,0.115,0.074,north-northwest,8.7,No
2023/07/19,23:00,0.144,0.132,0.206,0.197,0.207,0.114,0.074,north-northwest,9.5,No
2023/07/19,23:10,0.144,0.132,0.207,0.197,0.205,0.114,0.074,northwest,8.4,No
2023/07/19,23:20,0.144,0.132,0.206,0.197,0.208,0.115,0.074,north-northwest,7.1,No
2023/07/19,23:30,0.143,0.132,0.206,0.199,0.205,0.114,0.074,northwest,6.8,No
2023/07/19,23:40,0.145,0.132,0.207,0.197,0.207,0.114,0.074,north-northwest,5.5,No
2023/07/19,23:50,0.143,0.133,0.206,0.198,0.208,0.115,0.073,north-northwest,4.6,No
